Location: Larrial
(48.2758°N, 4.5331°W)
Time: 23:32:57
(UTC+00:00)

AAUSAT CUBESAT 2 - Pass Details

Date: 05 December 2021
Orbit: 571 x 586 km, 97.5° (Epoch: 19 January)

Event Time Altitude Azimuth Distance (km) Brightness Sun altitude
Rises 07:07:00 0° 355° (N) 2,799 ? -7.5°
Reaches altitude 10° 07:10:15 10° 327° (NNW) 1,897 ? -7.0°
Maximum altitude 07:12:03 13° 301° (WNW) 1,726 ? -6.7°
Drops below altitude 10° 07:13:51 10° 275° (W) 1,895 ? -6.4°
Sets 07:17:06 0° 247° (WSW) 2,793 ? -6.0°
